Time,TemperatureF,DewpointF,PressureIn,WindDirection,WindDirectionDegrees,WindSpeedMPH,WindSpeedGustMPH,Humidity,HourlyPrecipIn,Conditions,Clouds,dailyrainin,SoftwareType,DateUTC
2018-01-17 00:05:00,34.1,-11.7,30.18,WNW,283,11.5,11.5,13,0.00,RA,,0.00,WeatherDisplay:10.37,2018-01-17 07:05:00,
2018-01-17 00:19:00,34.6,-12.9,30.17,WNW,283,25.3,25.3,12,0.00,CLR,,0.00,WeatherDisplay:10.37,2018-01-17 07:19:00,
2018-01-17 00:24:00,34.4,-13.1,30.17,WNW,283,12.7,12.7,12,0.00,CLR,,0.00,WeatherDisplay:10.37,2018-01-17 07:24:00,
2018-01-17 00:30:00,34.6,-12.9,30.17,WNW,283,16.1,16.1,12,0.00,CLR,,0.00,WeatherDisplay:10.37,2018-01-17 07:30:00,
2018-01-17 00:43:00,34.7,-12.9,30.10,WNW,284,13.8,13.8,12,0.00,CLR,,0.00,WeatherDisplay:10.37,2018-01-17 07:43:00,
2018-01-17 00:48:00,35.2,-14.2,30.10,West,281,16.1,16.1,11,0.00,CLR,,0.00,WeatherDisplay:10.37,2018-01-17 07:48:00,
2018-01-17 01:06:00,34.9,-16.3,30.14,West,281,18.4,18.4,10,0.00,CLR,,0.00,WeatherDisplay:10.37,2018-01-17 08:06:00,
2018-01-17 01:17:00,34.6,-14.7,30.14,WNW,283,19.6,19.6,11,0.00,CLR,,0.00,WeatherDisplay:10.37,2018-01-17 08:17:00,
2018-01-17 01:30:00,34.4,-16.7,30.14,West,281,16.0,16.0,10,0.00,CLR,,0.00,WeatherDisplay:10.37,2018-01-17 08:30:00,
2018-01-17 01:39:00,34.9,-16.3,30.15,WNW,283,11.5,11.5,10,0.00,CLR,,0.00,WeatherDisplay:10.37,2018-01-17 08:39:00,
2018-01-17 01:44:00,34.3,-16.8,30.15,WNW,283,10.4,10.4,10,0.00,CLR,,0.00,WeatherDisplay:10.37,2018-01-17 08:44:00,
2018-01-17 01:49:00,34.1,-16.9,30.15,WNW,284,12.7,12.7,10,0.00,CLR,,0.00,WeatherDisplay:10.37,2018-01-17 08:49:00,
2018-01-17 02:05:00,34.0,-17.0,30.15,WNW,283,11.5,11.5,10,0.00,CLR,,0.00,WeatherDisplay:10.37,2018-01-17 09:05:00,
2018-01-17 02:24:00,34.7,-18.5,30.16,West,281,16.1,16.1,9,0.00,CLR,,0.00,WeatherDisplay:10.37,2018-01-17 09:24:00,
2018-01-17 02:30:00,34.7,-18.5,30.16,WNW,283,13.0,13.0,9,0.00,CLR,,0.00,WeatherDisplay:10.37,2018-01-17 09:30:00,
2018-01-17 02:35:00,34.3,-16.8,30.18,WNW,284,13.8,13.8,10,0.00,CLR,,0.00,WeatherDisplay:10.37,2018-01-17 09:35:00,
2018-01-17 02:48:00,34.0,-19.1,30.18,WNW,283,13.8,13.8,9,0.00,CLR,,0.00,WeatherDisplay:10.37,2018-01-17 09:48:00,
2018-01-17 02:58:00,34.3,-18.8,30.18,WNW,283,16.1,16.1,9,0.00,CLR,,0.00,WeatherDisplay:10.37,2018-01-17 09:58:00,
2018-01-17 03:06:00,34.3,-18.8,30.18,WNW,283,17.3,17.3,9,0.00,CLR,,0.00,WeatherDisplay:10.37,2018-01-17 10:06:00,
2018-01-17 03:11:00,34.4,-18.8,30.18,WNW,284,21.9,21.9,9,0.00,CLR,,0.00,WeatherDisplay:10.37,2018-01-17 10:11:00,
2018-01-17 03:21:00,34.7,-18.5,30.18,WNW,283,19.6,19.6,9,0.00,CLR,,0.00,WeatherDisplay:10.37,2018-01-17 10:21:00,
2018-01-17 03:28:00,34.7,-18.5,30.18,WNW,284,25.3,25.3,9,0.00,CLR,,0.00,WeatherDisplay:10.37,2018-01-17 10:28:00,
2018-01-17 03:33:00,34.7,-18.5,30.18,WNW,284,18.4,18.4,9,0.00,CLR,,0.00,WeatherDisplay:10.37,2018-01-17 10:33:00,
2018-01-17 03:48:00,34.6,-18.6,30.19,WNW,284,13.8,13.8,9,0.00,CLR,,0.00,WeatherDisplay:10.37,2018-01-17 10:48:00,
2018-01-17 04:01:00,34.1,-16.9,30.19,WNW,283,12.0,12.0,10,0.00,CLR,,0.00,WeatherDisplay:10.37,2018-01-17 11:01:00,
2018-01-17 04:12:00,34.4,-18.8,30.21,WNW,284,11.5,11.5,9,0.00,CLR,,0.00,WeatherDisplay:10.37,2018-01-17 11:12:00,
2018-01-17 04:25:00,34.0,-17.0,30.21,WNW,284,10.4,10.4,10,0.00,CLR,,0.00,WeatherDisplay:10.37,2018-01-17 11:25:00,
2018-01-17 04:30:00,33.5,-17.4,30.21,WNW,283,10.4,10.4,10,0.00,CLR,,0.00,WeatherDisplay:10.37,2018-01-17 11:30:00,
2018-01-17 04:38:00,33.7,-17.2,30.27,WNW,283,11.5,11.5,10,0.00,CLR,,0.00,WeatherDisplay:10.37,2018-01-17 11:38:00,
2018-01-17 04:43:00,33.5,-15.5,30.27,West,281,5.8,5.8,11,0.00,CLR,,0.00,WeatherDisplay:10.37,2018-01-17 11:43:00,
2018-01-17 04:48:00,32.8,-12.8,30.27,West,281,2.3,2.3,13,0.00,CLR,,0.00,WeatherDisplay:10.37,2018-01-17 11:48:00,
2018-01-17 04:57:00,30.3,-11.9,30.28,WNW,283,5.0,5.0,15,0.00,CLR,,0.00,WeatherDisplay:10.37,2018-01-17 11:57:00,
2018-01-17 05:14:00,26.9,-14.7,30.32,WNW,283,4.6,4.6,15,0.00,CLR,,0.00,WeatherDisplay:10.37,2018-01-17 12:14:00,
2018-01-17 05:22:00,26.9,-14.7,30.34,WNW,283,2.3,2.3,15,0.00,CLR,,0.00,WeatherDisplay:10.37,2018-01-17 12:22:00,
2018-01-17 05:30:00,26.4,-15.1,30.34,WNW,283,3.5,3.5,15,0.00,CLR,,0.00,WeatherDisplay:10.37,2018-01-17 12:30:00,
2018-01-17 05:36:00,26.3,-15.2,30.38,WNW,283,2.3,2.3,15,0.00,CLR,,0.00,WeatherDisplay:10.37,2018-01-17 12:36:00,
2018-01-17 05:44:00,26.1,-14.1,30.38,WNW,284,0.0,0.0,16,0.00,CLR,,0.00,WeatherDisplay:10.37,2018-01-17 12:44:00,
2018-01-17 06:00:00,23.9,-12.5,30.31,WNW,283,3.5,3.5,19,0.00,CLR,,0.00,WeatherDisplay:10.37,2018-01-17 13:00:00,
2018-01-17 06:06:00,23.5,-13.9,30.40,WNW,283,5.8,5.8,18,0.00,CLR,,0.00,WeatherDisplay:10.37,2018-01-17 13:06:00,
2018-01-17 06:11:00,23.5,-15.0,30.40,WNW,284,3.5,3.5,17,0.00,CLR,,0.00,WeatherDisplay:10.37,2018-01-17 13:11:00,
2018-01-17 06:16:00,23.3,-14.0,30.40,WNW,283,2.3,2.3,18,0.00,CLR,,0.00,WeatherDisplay:10.37,2018-01-17 13:16:00,
2018-01-17 06:21:00,23.3,-14.0,30.43,WNW,283,2.3,2.3,18,0.00,CLR,,0.00,WeatherDisplay:10.37,2018-01-17 13:21:00,
2018-01-17 06:34:00,23.5,-15.0,30.45,WNW,284,2.3,2.3,17,0.00,CLR,,0.00,WeatherDisplay:10.37,2018-01-17 13:34:00,
2018-01-17 06:39:00,23.5,-15.0,30.45,WNW,283,3.5,3.5,17,0.00,CLR,,0.00,WeatherDisplay:10.37,2018-01-17 13:39:00,
2018-01-17 06:46:00,23.5,-12.8,30.45,WNW,284,5.8,5.8,19,0.00,CLR,,0.00,WeatherDisplay:10.37,2018-01-17 13:46:00,
2018-01-17 06:51:00,23.2,-13.1,30.45,WNW,283,2.3,2.3,19,0.00,CLR,,0.00,WeatherDisplay:10.37,2018-01-17 13:51:00,
2018-01-17 07:07:00,22.9,-12.3,30.45,WNW,284,3.5,3.5,20,0.00,CLR,,0.00,WeatherDisplay:10.37,2018-01-17 14:07:00,
2018-01-17 07:20:00,22.5,-10.7,30.46,WNW,283,3.5,3.5,22,0.00,CLR,,0.00,WeatherDisplay:10.37,2018-01-17 14:20:00,
2018-01-17 07:26:00,21.9,-11.2,30.46,WNW,284,4.6,4.6,22,0.00,CLR,,0.00,WeatherDisplay:10.37,2018-01-17 14:26:00,
2018-01-17 07:44:00,21.6,-11.5,30.52,WNW,283,2.3,2.3,22,0.00,CLR,,0.00,WeatherDisplay:10.37,2018-01-17 14:44:00,
2018-01-17 07:51:00,21.8,-11.3,30.51,WNW,283,3.5,3.5,22,0.00,CLR,,0.00,WeatherDisplay:10.37,2018-01-17 14:51:00,
2018-01-17 07:56:00,22.1,-11.0,30.51,WNW,283,2.3,2.3,22,0.00,CLR,,0.00,WeatherDisplay:10.37,2018-01-17 14:56:00,
2018-01-17 08:03:00,23.3,-11.0,30.51,West,281,2.3,2.3,21,0.00,CLR,,0.00,WeatherDisplay:10.37,2018-01-17 15:03:00,
2018-01-17 08:09:00,25.0,-8.6,30.50,WNW,283,1.2,1.2,22,0.00,CLR,,0.00,WeatherDisplay:10.37,2018-01-17 15:09:00,
2018-01-17 08:21:00,27.9,-4.3,30.46,WNW,284,0.0,0.0,24,0.00,CLR,,0.00,WeatherDisplay:10.37,2018-01-17 15:21:00,
2018-01-17 08:32:00,30.9,-3.6,30.46,WNW,283,0.0,0.0,22,0.00,CLR,,0.00,WeatherDisplay:10.37,2018-01-17 15:32:00,
2018-01-17 08:46:00,33.1,0.2,30.47,WNW,283,1.2,0.0,24,0.00,CLR,,0.00,WeatherDisplay:10.37,2018-01-17 15:46:00,
2018-01-17 09:03:00,32.9,0.0,30.45,WNW,283,1.2,0.0,24,0.00,CLR,,0.00,WeatherDisplay:10.37,2018-01-17 16:03:00,
2018-01-17 09:09:00,32.9,-1.9,30.46,WNW,283,0.0,0.0,22,0.00,CLR,,0.00,WeatherDisplay:10.37,2018-01-17 16:09:00,
2018-01-17 09:14:00,33.5,-3.4,30.46,WNW,284,1.2,1.2,20,0.00,CLR,,0.00,WeatherDisplay:10.37,2018-01-17 16:14:00,
2018-01-17 09:32:00,37.6,-4.6,30.45,WNW,283,1.2,1.2,16,0.00,CLR,,0.00,WeatherDisplay:10.37,2018-01-17 16:32:00,
2018-01-17 09:40:00,38.8,-3.7,30.44,West,281,0.0,0.0,16,0.00,CLR,,0.00,WeatherDisplay:10.37,2018-01-17 16:40:00,
2018-01-17 09:49:00,39.3,-3.2,30.42,WNW,283,1.2,1.2,16,0.00,CLR,,0.00,WeatherDisplay:10.37,2018-01-17 16:49:00,
2018-01-17 10:01:00,40.6,-0.9,30.42,WNW,283,2.3,2.3,17,0.00,CLR,,0.00,WeatherDisplay:10.37,2018-01-17 17:01:00,
2018-01-17 10:07:00,41.8,0.1,30.41,WNW,283,1.2,1.2,17,0.00,CLR,,0.00,WeatherDisplay:10.37,2018-01-17 17:07:00,
2018-01-17 10:14:00,43.2,1.2,30.41,WNW,283,2.3,2.3,17,0.00,CLR,,0.00,WeatherDisplay:10.37,2018-01-17 17:14:00,
2018-01-17 10:21:00,44.8,1.2,30.38,WNW,283,1.2,0.0,16,0.00,CLR,,0.00,WeatherDisplay:10.37,2018-01-17 17:21:00,
2018-01-17 10:29:00,44.9,-0.1,30.38,WNW,283,5.8,5.8,15,0.00,CLR,,0.00,WeatherDisplay:10.37,2018-01-17 17:29:00,
2018-01-17 10:37:00,45.2,0.2,30.36,WNW,283,4.6,4.6,15,0.00,CLR,,0.00,WeatherDisplay:10.37,2018-01-17 17:37:00,
2018-01-17 10:45:00,45.2,-1.3,30.36,WNW,283,4.6,4.6,14,0.00,CLR,,0.00,WeatherDisplay:10.37,2018-01-17 17:45:00,
2018-01-17 10:50:00,45.2,0.2,30.36,WNW,283,4.6,4.6,15,0.00,CLR,,0.00,WeatherDisplay:10.37,2018-01-17 17:50:00,
2018-01-17 10:57:00,45.7,0.6,30.36,WNW,283,3.5,3.5,15,0.00,CLR,,0.00,WeatherDisplay:10.37,2018-01-17 17:57:00,
2018-01-17 11:09:00,46.4,1.2,30.34,WNW,283,3.5,3.5,15,0.00,CLR,,0.00,WeatherDisplay:10.37,2018-01-17 18:09:00,
2018-01-17 11:15:00,46.8,0.0,30.34,WNW,283,5.0,5.0,14,0.00,CLR,,0.00,WeatherDisplay:10.37,2018-01-17 18:15:00,
2018-01-17 11:32:00,47.9,0.9,30.33,West,281,1.2,1.2,14,0.00,CLR,,0.00,WeatherDisplay:10.37,2018-01-17 18:32:00,
2018-01-17 11:41:00,47.6,2.1,30.16,WNW,283,2.3,2.3,15,0.00,CLR,,0.00,WeatherDisplay:10.37,2018-01-17 18:41:00,
2018-01-17 11:49:00,47.9,2.4,30.15,WNW,283,2.3,2.3,15,0.00,CLR,,0.00,WeatherDisplay:10.37,2018-01-17 18:49:00,
2018-01-17 11:54:00,48.3,1.2,30.15,West,281,1.2,1.2,14,0.00,CLR,,0.00,WeatherDisplay:10.37,2018-01-17 18:54:00,
2018-01-17 12:06:00,48.6,4.3,30.12,West,281,2.3,2.3,16,0.00,CLR,,0.00,WeatherDisplay:10.37,2018-01-17 19:06:00,
2018-01-17 12:27:00,48.9,8.4,30.13,WNW,283,8.1,8.1,19,0.00,CLR,,0.00,WeatherDisplay:10.37,2018-01-17 19:27:00,
2018-01-17 12:32:00,48.8,8.3,30.13,WNW,283,11.5,11.5,19,0.00,CLR,,0.00,WeatherDisplay:10.37,2018-01-17 19:32:00,
2018-01-17 12:37:00,47.9,7.5,30.11,West,280,12.0,12.0,19,0.00,CLR,,0.00,WeatherDisplay:10.37,2018-01-17 19:37:00,
2018-01-17 12:42:00,47.7,7.4,30.11,West,281,11.5,11.5,19,0.00,CLR,,0.00,WeatherDisplay:10.37,2018-01-17 19:42:00,
2018-01-17 12:47:00,47.4,8.3,30.11,WNW,283,11.5,11.5,20,0.00,CLR,,0.00,WeatherDisplay:10.37,2018-01-17 19:47:00,
2018-01-17 12:52:00,47.7,7.4,30.12,WNW,283,11.0,11.0,19,0.00,CLR,,0.00,WeatherDisplay:10.37,2018-01-17 19:52:00,
2018-01-17 12:57:00,47.3,7.0,30.12,West,281,12.0,12.0,19,0.00,CLR,,0.00,WeatherDisplay:10.37,2018-01-17 19:57:00,
2018-01-17 13:02:00,47.7,7.4,30.12,West,281,11.5,11.5,19,0.00,CLR,,0.00,WeatherDisplay:10.37,2018-01-17 20:02:00,
2018-01-17 13:07:00,47.4,7.1,30.11,West,281,7.0,7.0,19,0.00,CLR,,0.00,WeatherDisplay:10.37,2018-01-17 20:07:00,
2018-01-17 13:13:00,47.7,7.4,30.11,WNW,284,13.0,13.0,19,0.00,CLR,,0.00,WeatherDisplay:10.37,2018-01-17 20:13:00,
2018-01-17 13:18:00,48.0,7.6,30.11,West,281,8.1,8.1,19,0.00,CLR,,0.00,WeatherDisplay:10.37,2018-01-17 20:18:00,
2018-01-17 13:23:00,48.3,7.9,30.11,WNW,283,8.1,8.1,19,0.00,CLR,,0.00,WeatherDisplay:10.37,2018-01-17 20:23:00,
2018-01-17 13:28:00,48.9,7.2,30.11,WNW,284,8.1,8.1,18,0.00,CLR,,0.00,WeatherDisplay:10.37,2018-01-17 20:28:00,
2018-01-17 13:34:00,49.1,7.3,30.11,West,281,10.0,10.0,18,0.00,CLR,,0.00,WeatherDisplay:10.37,2018-01-17 20:34:00,
2018-01-17 13:38:00,48.8,7.1,30.11,WNW,284,11.5,11.5,18,0.00,CLR,,0.00,WeatherDisplay:10.37,2018-01-17 20:38:00,
2018-01-17 13:43:00,47.9,6.4,30.11,WNW,283,13.0,13.0,18,0.00,CLR,,0.00,WeatherDisplay:10.37,2018-01-17 20:43:00,
2018-01-17 13:44:00,47.9,6.4,30.11,WNW,283,11.5,11.5,18,0.00,CLR,,0.00,WeatherDisplay:10.37,2018-01-17 20:44:00,
2018-01-17 13:48:00,48.0,6.4,30.11,WSW,253,11.5,11.5,18,0.00,CLR,,0.00,WeatherDisplay:10.37,2018-01-17 20:48:00,
2018-01-17 13:51:00,47.9,6.4,30.11,WNW,284,10.4,10.4,18,0.00,CLR,,0.00,WeatherDisplay:10.37,2018-01-17 20:51:00,
2018-01-17 13:54:00,47.9,6.4,30.11,West,281,10.4,10.4,18,0.00,CLR,,0.00,WeatherDisplay:10.37,2018-01-17 20:54:00,
2018-01-17 13:59:00,47.7,6.2,30.11,West,281,12.0,12.0,18,0.00,CLR,,0.00,WeatherDisplay:10.37,2018-01-17 20:59:00,
2018-01-17 14:04:00,48.0,6.4,30.11,West,281,10.4,10.4,18,0.00,CLR,,0.00,WeatherDisplay:10.37,2018-01-17 21:04:00,
2018-01-17 14:05:00,48.0,6.4,30.11,WNW,283,10.4,10.4,18,0.00,CLR,,0.00,WeatherDisplay:10.37,2018-01-17 21:05:00,